Location: Marcé
(47.5801°N, 0.3280°W)
Time: 19:53:07
(UTC+01:00)

Vanguard 1 - Pass Details

Date: 07 December 2021
Orbit: 652 x 3830 km, 34.2° (Epoch: 16 January)

Event Time Altitude Azimuth Distance (km) Brightness Sun altitude
Rises 00:07:04 0° 230° (SW) 6,867 14.3 -63.4°
Enters shadow 00:08:29 - 228° (SW) 6,634 14.2 -63.5°
Reaches altitude 10° 00:11:25 10° 224° (SW) 6,173 - -63.7°
Maximum altitude 00:31:12 48° 158° (SSE) 4,513 - -64.7°
Exits shadow 00:49:35 15° 96° (E) 6,082 13.9 -65.0°
Drops below altitude 10° 00:51:40 10° 94° (E) 6,391 14.1 -65.0°
Sets 00:56:14 0° 89° (E) 7,118 14.5 -65.0°
